Time,TemperatureF,DewpointF,PressureIn,WindDirection,WindDirectionDegrees,WindSpeedMPH,WindSpeedGustMPH,Humidity,HourlyPrecipIn,Conditions,Clouds,dailyrainin,SolarRadiationWatts/m^2,SoftwareType,DateUTC
2013-09-22 00:02:00,82.0,41.0,-100.00,NW,313,9.0,16.0,23,0.00,,,0.00,0.000000,,2013-09-22 07:02:00,
2013-09-22 00:42:00,80.0,40.0,-100.00,WNW,295,12.0,19.0,24,0.00,,,0.00,0.000000,,2013-09-22 07:42:00,
2013-09-22 01:42:00,77.0,46.0,-100.00,WNW,303,10.0,17.0,33,0.00,,,0.00,0.000000,,2013-09-22 08:42:00,
2013-09-22 01:52:00,77.0,46.0,-100.00,WNW,303,10.0,17.0,33,0.00,,,0.00,0.000000,,2013-09-22 08:52:00,
2013-09-22 02:01:00,77.0,46.0,-100.00,WNW,303,10.0,17.0,33,0.00,,,0.00,0.000000,,2013-09-22 09:01:00,
2013-09-22 02:43:00,75.0,46.0,-100.00,NW,306,10.0,17.0,36,0.00,,,0.00,0.000000,,2013-09-22 09:43:00,
2013-09-22 02:53:00,75.0,46.0,-100.00,NW,306,10.0,17.0,36,0.00,,,0.00,0.000000,,2013-09-22 09:53:00,
2013-09-22 03:03:00,75.0,46.0,-100.00,NW,306,10.0,17.0,36,0.00,,,0.00,0.000000,,2013-09-22 10:03:00,
2013-09-22 03:44:00,73.0,47.0,-100.00,WNW,300,12.0,19.0,40,0.00,,,0.00,0.000000,,2013-09-22 10:44:00,
2013-09-22 03:53:00,73.0,47.0,-100.00,WNW,300,12.0,19.0,40,0.00,,,0.00,0.000000,,2013-09-22 10:53:00,
2013-09-22 04:42:00,72.0,51.0,-100.00,NW,311,11.0,20.0,48,0.00,,,0.00,0.000000,,2013-09-22 11:42:00,
2013-09-22 04:52:00,72.0,51.0,-100.00,NW,311,11.0,20.0,48,0.00,,,0.00,0.000000,,2013-09-22 11:52:00,
2013-09-22 05:02:00,72.0,51.0,-100.00,NW,311,11.0,20.0,48,0.00,,,0.00,0.000000,,2013-09-22 12:02:00,
2013-09-22 05:42:00,70.0,49.0,-100.00,NW,318,9.0,15.0,47,0.00,,,0.00,0.000000,,2013-09-22 12:42:00,
2013-09-22 05:52:00,70.0,49.0,-100.00,NW,318,9.0,15.0,47,0.00,,,0.00,0.000000,,2013-09-22 12:52:00,
2013-09-22 06:02:00,70.0,49.0,-100.00,NW,318,9.0,15.0,47,0.00,,,0.00,0.000000,,2013-09-22 13:02:00,
2013-09-22 06:42:00,69.0,44.0,-100.00,WNW,302,10.0,18.0,40,0.00,,,0.00,0.000000,,2013-09-22 13:42:00,
2013-09-22 06:52:00,69.0,44.0,-100.00,WNW,302,10.0,18.0,40,0.00,,,0.00,0.000000,,2013-09-22 13:52:00,
2013-09-22 07:02:00,69.0,44.0,-100.00,WNW,302,10.0,18.0,40,0.00,,,0.00,0.000000,,2013-09-22 14:02:00,
2013-09-22 07:42:00,68.0,46.0,-100.00,WNW,300,11.0,21.0,45,0.00,,,0.00,0.000000,,2013-09-22 14:42:00,
2013-09-22 07:52:00,68.0,46.0,-100.00,WNW,300,11.0,21.0,45,0.00,,,0.00,0.000000,,2013-09-22 14:52:00,
2013-09-22 08:02:00,68.0,46.0,-100.00,WNW,300,11.0,21.0,45,0.00,,,0.00,0.000000,,2013-09-22 15:02:00,
2013-09-22 08:44:00,69.0,46.0,-100.00,WNW,288,14.0,21.0,43,0.00,,,0.00,14.000000,,2013-09-22 15:44:00,
2013-09-22 08:55:00,69.0,46.0,-100.00,WNW,288,14.0,21.0,43,0.00,,,0.00,14.000000,,2013-09-22 15:55:00,
2013-09-22 09:04:00,69.0,46.0,-100.00,WNW,288,14.0,21.0,43,0.00,,,0.00,14.000000,,2013-09-22 16:04:00,
2013-09-22 09:43:00,72.0,45.0,-100.00,NW,308,14.0,22.0,38,0.00,,,0.00,52.000000,,2013-09-22 16:43:00,
2013-09-22 09:54:00,72.0,45.0,-100.00,NW,308,14.0,22.0,38,0.00,,,0.00,52.000000,,2013-09-22 16:54:00,
2013-09-22 10:03:00,72.0,45.0,-100.00,NW,308,14.0,22.0,38,0.00,,,0.00,52.000000,,2013-09-22 17:03:00,
2013-09-22 10:43:00,75.0,44.0,-100.00,NW,324,11.0,24.0,33,0.00,,,0.00,63.000000,,2013-09-22 17:43:00,
2013-09-22 10:53:00,75.0,44.0,-100.00,NW,324,11.0,24.0,33,0.00,,,0.00,63.000000,,2013-09-22 17:53:00,
2013-09-22 11:02:00,75.0,44.0,-100.00,NW,324,11.0,24.0,33,0.00,,,0.00,63.000000,,2013-09-22 18:02:00,
2013-09-22 11:42:00,80.0,42.0,-100.00,NNW,330,14.0,23.0,26,0.00,,,0.00,222.000000,,2013-09-22 18:42:00,
2013-09-22 11:52:00,80.0,42.0,-100.00,NNW,330,14.0,23.0,26,0.00,,,0.00,222.000000,,2013-09-22 18:52:00,
2013-09-22 12:02:00,80.0,42.0,-100.00,NNW,330,14.0,23.0,26,0.00,,,0.00,222.000000,,2013-09-22 19:02:00,
2013-09-22 12:42:00,84.0,41.0,-100.00,NNW,328,8.0,19.0,22,0.00,,,0.00,615.000000,,2013-09-22 19:42:00,
2013-09-22 12:52:00,84.0,41.0,-100.00,NNW,328,8.0,19.0,22,0.00,,,0.00,615.000000,,2013-09-22 19:52:00,
2013-09-22 13:03:00,84.0,41.0,-100.00,NNW,328,8.0,19.0,22,0.00,,,0.00,615.000000,,2013-09-22 20:03:00,
2013-09-22 13:42:00,86.0,44.0,-100.00,NW,319,7.0,16.0,23,0.00,,,0.00,887.000000,,2013-09-22 20:42:00,
2013-09-22 13:52:00,86.0,44.0,-100.00,NW,319,7.0,16.0,23,0.00,,,0.00,887.000000,,2013-09-22 20:52:00,
2013-09-22 14:02:00,86.0,44.0,-100.00,NW,319,7.0,16.0,23,0.00,,,0.00,887.000000,,2013-09-22 21:02:00,
2013-09-22 14:45:00,89.0,40.0,-100.00,NW,315,7.0,16.0,18,0.00,,,0.00,1107.000000,,2013-09-22 21:45:00,
2013-09-22 14:54:00,89.0,40.0,-100.00,NW,315,7.0,16.0,18,0.00,,,0.00,1107.000000,,2013-09-22 21:54:00,
2013-09-22 15:04:00,89.0,40.0,-100.00,NW,315,7.0,16.0,18,0.00,,,0.00,1107.000000,,2013-09-22 22:04:00,
2013-09-22 15:43:00,89.0,38.0,-100.00,WNW,300,6.0,14.0,17,0.00,,,0.00,1056.000000,,2013-09-22 22:43:00,
2013-09-22 15:53:00,89.0,38.0,-100.00,WNW,300,6.0,14.0,17,0.00,,,0.00,1056.000000,,2013-09-22 22:53:00,
2013-09-22 16:03:00,89.0,38.0,-100.00,WNW,300,6.0,14.0,17,0.00,,,0.00,1056.000000,,2013-09-22 23:03:00,
2013-09-22 16:43:00,90.0,33.0,-100.00,WNW,288,8.0,18.0,13,0.00,,,0.00,932.000000,,2013-09-22 23:43:00,
2013-09-22 16:52:00,90.0,33.0,-100.00,WNW,288,8.0,18.0,13,0.00,,,0.00,932.000000,,2013-09-22 23:52:00,
2013-09-22 17:01:00,90.0,33.0,-100.00,WNW,288,8.0,18.0,13,0.00,,,0.00,932.000000,,2013-09-23 00:01:00,
2013-09-22 17:42:00,92.0,32.0,-100.00,NW,305,8.0,17.0,12,0.00,,,0.00,735.000000,,2013-09-23 00:42:00,
2013-09-22 17:53:00,92.0,32.0,-100.00,NW,305,8.0,17.0,12,0.00,,,0.00,735.000000,,2013-09-23 00:53:00,
2013-09-22 18:01:00,92.0,32.0,-100.00,NW,305,8.0,17.0,12,0.00,,,0.00,735.000000,,2013-09-23 01:01:00,
2013-09-22 18:43:00,89.0,28.0,-100.00,NW,317,8.0,20.0,11,0.00,,,0.00,480.000000,,2013-09-23 01:43:00,
2013-09-22 18:52:00,89.0,28.0,-100.00,NW,317,8.0,20.0,11,0.00,,,0.00,480.000000,,2013-09-23 01:52:00,
2013-09-22 19:02:00,89.0,28.0,-100.00,NW,317,8.0,20.0,11,0.00,,,0.00,480.000000,,2013-09-23 02:02:00,
2013-09-22 19:42:00,87.0,26.0,-100.00,NW,316,7.0,15.0,11,0.00,,,0.00,210.000000,,2013-09-23 02:42:00,
2013-09-22 19:52:00,87.0,26.0,-100.00,NW,316,7.0,15.0,11,0.00,,,0.00,210.000000,,2013-09-23 02:52:00,
2013-09-22 20:02:00,87.0,26.0,-100.00,NW,316,7.0,15.0,11,0.00,,,0.00,210.000000,,2013-09-23 03:02:00,
2013-09-22 20:44:00,84.0,28.0,-100.00,NW,317,3.0,11.0,13,0.00,,,0.00,9.000000,,2013-09-23 03:44:00,
2013-09-22 20:54:00,84.0,28.0,-100.00,NW,317,3.0,11.0,13,0.00,,,0.00,9.000000,,2013-09-23 03:54:00,
2013-09-22 21:05:00,84.0,28.0,-100.00,NW,317,3.0,11.0,13,0.00,,,0.00,9.000000,,2013-09-23 04:05:00,
2013-09-22 22:43:00,75.0,29.0,-100.00,SSE,157,0.0,4.0,18,0.00,,,0.00,0.000000,,2013-09-23 05:43:00,
2013-09-22 22:53:00,75.0,29.0,-100.00,SSE,157,0.0,4.0,18,0.00,,,0.00,0.000000,,2013-09-23 05:53:00,
2013-09-22 23:02:00,75.0,29.0,-100.00,SSE,157,0.0,4.0,18,0.00,,,0.00,0.000000,,2013-09-23 06:02:00,
2013-09-22 23:42:00,74.0,29.0,-100.00,East,86,1.0,2.0,19,0.00,,,0.00,0.000000,,2013-09-23 06:42:00,
2013-09-22 23:52:00,74.0,29.0,-100.00,East,86,1.0,2.0,19,0.00,,,0.00,0.000000,,2013-09-23 06:52:00,